TimeCDT,TemperatureF,Dew PointF,Humidity,Sea Level PressureIn,VisibilityMPH,Wind Direction,Wind SpeedMPH,Gust SpeedMPH,PrecipitationIn,Events,Conditions,WindDirDegrees,DateUTC
12:15 AM,69.1,69.1,100,29.75,2.0,West,3.5,-,N/A,,Overcast,270,2013-09-10 05:15:00
12:35 AM,68.5,68.5,100,29.75,1.0,Calm,Calm,-,N/A,,Overcast,0,2013-09-10 05:35:00
12:55 AM,68.9,68.9,100,29.75,1.5,Calm,Calm,-,N/A,,Overcast,0,2013-09-10 05:55:00
1:15 AM,69.1,69.1,100,29.75,0.5,Calm,Calm,-,N/A,Fog,Fog,0,2013-09-10 06:15:00
1:35 AM,65.1,65.1,100,29.76,0.2,WSW,3.5,-,N/A,Fog,Fog,240,2013-09-10 06:35:00
1:55 AM,68.2,68.2,100,29.76,0.5,SSW,3.5,-,N/A,Fog,Fog,210,2013-09-10 06:55:00
2:15 AM,66.7,66.7,100,29.78,0.5,WSW,3.5,-,N/A,Fog,Fog,240,2013-09-10 07:15:00
2:35 AM,68.0,68.0,100,29.78,0.2,SW,4.6,-,N/A,Fog,Fog,230,2013-09-10 07:35:00
2:55 AM,67.5,67.5,100,29.78,0.2,WSW,3.5,-,N/A,Fog,Fog,240,2013-09-10 07:55:00
3:15 AM,67.8,67.8,100,29.78,0.2,Calm,Calm,-,N/A,Fog,Fog,0,2013-09-10 08:15:00
3:35 AM,68.5,68.5,100,29.78,0.8,WSW,3.5,-,N/A,,Mostly Cloudy,240,2013-09-10 08:35:00
3:55 AM,67.8,67.8,100,29.79,0.2,WSW,4.6,-,N/A,Fog,Fog,240,2013-09-10 08:55:00
4:15 AM,68.5,68.5,100,29.79,1.8,WSW,4.6,-,N/A,,Overcast,240,2013-09-10 09:15:00
4:35 AM,68.2,68.2,100,29.80,2.5,WSW,4.6,-,N/A,,Scattered Clouds,240,2013-09-10 09:35:00
4:55 AM,68.4,68.4,100,29.80,2.5,West,4.6,-,N/A,,Mostly Cloudy,260,2013-09-10 09:55:00
5:15 AM,68.0,68.0,100,29.81,2.5,SW,4.6,-,N/A,,Mostly Cloudy,230,2013-09-10 10:15:00
5:35 AM,67.3,67.3,100,29.81,1.5,Calm,Calm,-,N/A,,Mostly Cloudy,0,2013-09-10 10:35:00
5:55 AM,67.5,67.5,100,29.81,1.5,SW,4.6,-,N/A,,Scattered Clouds,230,2013-09-10 10:55:00
6:15 AM,67.8,67.8,100,29.81,3.0,WSW,5.8,-,N/A,,Clear,240,2013-09-10 11:15:00
6:35 AM,67.6,67.6,100,29.82,2.0,WSW,5.8,-,N/A,,Clear,240,2013-09-10 11:35:00
6:55 AM,67.5,67.5,100,29.82,2.0,SW,4.6,-,N/A,,Clear,230,2013-09-10 11:55:00
7:15 AM,68.0,68.0,100,29.83,2.5,WSW,5.8,-,N/A,,Clear,240,2013-09-10 12:15:00
7:35 AM,68.2,68.2,100,29.83,2.0,SW,5.8,-,N/A,,Clear,220,2013-09-10 12:35:00
7:55 AM,68.9,68.9,100,29.84,2.5,WSW,5.8,-,N/A,,Scattered Clouds,250,2013-09-10 12:55:00
8:15 AM,68.9,68.9,100,29.86,4.0,West,9.2,17.3,N/A,,Mostly Cloudy,260,2013-09-10 13:15:00
8:35 AM,69.8,69.8,100,29.86,5.0,West,10.4,-,N/A,,Overcast,270,2013-09-10 13:35:00
8:55 AM,70.5,68.5,93,29.86,7.0,West,6.9,-,N/A,,Overcast,280,2013-09-10 13:55:00
9:15 AM,70.9,67.8,90,29.87,10.0,West,8.1,16.1,N/A,,Overcast,260,2013-09-10 14:15:00
9:35 AM,70.7,67.6,90,29.87,10.0,West,9.2,-,N/A,,Overcast,270,2013-09-10 14:35:00
9:55 AM,73.2,65.5,77,29.88,10.0,WSW,13.8,17.3,N/A,,Mostly Cloudy,250,2013-09-10 14:55:00
10:15 AM,73.6,63.9,72,29.88,10.0,West,10.4,18.4,N/A,,Mostly Cloudy,260,2013-09-10 15:15:00
10:35 AM,75.4,64.6,69,29.88,10.0,West,8.1,11.5,N/A,,Scattered Clouds,260,2013-09-10 15:35:00
10:55 AM,75.4,62.6,64,29.87,10.0,WSW,10.4,-,N/A,,Scattered Clouds,240,2013-09-10 15:55:00
11:15 AM,75.2,62.4,64,29.88,10.0,WSW,12.7,17.3,N/A,,Scattered Clouds,250,2013-09-10 16:15:00
11:35 AM,77.0,63.0,62,29.88,10.0,WSW,10.4,17.3,N/A,,Clear,240,2013-09-10 16:35:00
11:55 AM,75.2,62.4,64,29.88,10.0,WSW,13.8,18.4,N/A,,Scattered Clouds,240,2013-09-10 16:55:00
12:15 PM,78.1,62.8,59,29.88,10.0,WSW,10.4,-,N/A,,Scattered Clouds,250,2013-09-10 17:15:00
12:35 PM,76.8,60.3,56,29.89,10.0,West,11.5,17.3,N/A,,Scattered Clouds,270,2013-09-10 17:35:00
12:55 PM,77.0,61.2,58,29.89,10.0,West,13.8,18.4,N/A,,Scattered Clouds,260,2013-09-10 17:55:00
1:15 PM,77.0,61.3,58,29.90,10.0,West,10.4,18.4,N/A,,Scattered Clouds,260,2013-09-10 18:15:00
1:35 PM,75.4,61.2,61,29.91,10.0,WNW,11.5,19.6,N/A,,Mostly Cloudy,290,2013-09-10 18:35:00
1:55 PM,74.7,60.8,62,29.91,10.0,WNW,9.2,-,N/A,,Mostly Cloudy,290,2013-09-10 18:55:00
2:15 PM,72.7,61.2,67,29.92,10.0,WNW,6.9,-,N/A,,Overcast,290,2013-09-10 19:15:00
2:35 PM,71.6,61.5,70,29.93,10.0,WNW,9.2,-,N/A,Rain,Light Rain,300,2013-09-10 19:35:00
2:55 PM,69.1,63.5,82,29.93,10.0,West,4.6,-,0.01,Rain,Rain,280,2013-09-10 19:55:00
3:15 PM,68.7,61.9,79,29.92,10.0,SW,5.8,-,N/A,Rain,Light Rain,230,2013-09-10 20:15:00
3:35 PM,67.6,63.5,87,29.93,7.0,SW,9.2,-,0.01,Rain,Light Rain,230,2013-09-10 20:35:00
3:55 PM,67.1,65.3,94,29.93,10.0,SW,3.5,-,0.01,Rain,Light Rain,230,2013-09-10 20:55:00
4:15 PM,67.8,65.1,91,29.93,10.0,SW,6.9,-,N/A,,Mostly Cloudy,230,2013-09-10 21:15:00
4:35 PM,68.2,63.3,84,29.92,10.0,SW,6.9,-,N/A,,Scattered Clouds,230,2013-09-10 21:35:00
4:55 PM,68.5,61.7,79,29.92,10.0,SW,8.1,-,N/A,,Scattered Clouds,230,2013-09-10 21:55:00
5:15 PM,68.4,61.9,80,29.93,10.0,WSW,6.9,-,N/A,,Mostly Cloudy,240,2013-09-10 22:15:00
5:35 PM,69.4,62.6,79,29.93,10.0,SW,6.9,-,N/A,,Scattered Clouds,230,2013-09-10 22:35:00
5:55 PM,70.0,62.6,77,29.92,10.0,WSW,6.9,-,N/A,,Clear,240,2013-09-10 22:55:00
6:15 PM,69.8,61.9,76,29.92,10.0,WSW,9.2,-,N/A,,Clear,250,2013-09-10 23:15:00
6:35 PM,68.9,61.9,78,29.93,10.0,SW,5.8,-,N/A,,Clear,230,2013-09-10 23:35:00
6:55 PM,67.8,61.7,81,29.93,10.0,SW,4.6,-,N/A,,Scattered Clouds,230,2013-09-10 23:55:00
7:15 PM,67.1,61.7,83,29.93,10.0,WSW,4.6,-,N/A,,Scattered Clouds,240,2013-09-11 00:15:00
7:35 PM,65.7,64.4,96,29.93,10.0,SW,5.8,-,N/A,,Clear,220,2013-09-11 00:35:00
7:55 PM,65.8,64.8,96,29.94,10.0,SW,5.8,-,N/A,,Clear,230,2013-09-11 00:55:00
8:15 PM,65.1,64.4,98,29.94,10.0,SW,4.6,-,N/A,,Clear,230,2013-09-11 01:15:00
8:35 PM,64.4,64.0,99,29.95,10.0,SW,4.6,-,N/A,,Clear,230,2013-09-11 01:35:00
8:55 PM,63.3,63.3,100,29.95,10.0,SW,4.6,-,N/A,,Clear,230,2013-09-11 01:55:00
9:15 PM,62.8,62.8,100,29.94,10.0,WSW,3.5,-,N/A,,Clear,240,2013-09-11 02:15:00
9:35 PM,62.2,62.2,100,29.94,7.0,WSW,3.5,-,N/A,,Clear,240,2013-09-11 02:35:00
9:55 PM,62.6,62.6,100,29.94,10.0,SW,3.5,-,N/A,,Clear,230,2013-09-11 02:55:00
10:15 PM,61.9,61.9,100,29.94,10.0,WSW,4.6,-,N/A,,Clear,250,2013-09-11 03:15:00
10:35 PM,62.2,62.2,100,29.94,10.0,WSW,5.8,-,N/A,,Scattered Clouds,240,2013-09-11 03:35:00
10:55 PM,63.0,62.6,99,29.94,10.0,WSW,5.8,-,N/A,,Scattered Clouds,250,2013-09-11 03:55:00
11:15 PM,64.0,62.8,96,29.94,10.0,West,6.9,-,N/A,,Scattered Clouds,260,2013-09-11 04:15:00
11:35 PM,63.0,61.9,96,29.94,10.0,WSW,6.9,-,N/A,,Scattered Clouds,250,2013-09-11 04:35:00
11:55 PM,63.1,61.9,96,29.94,10.0,WSW,6.9,-,N/A,,Scattered Clouds,250,2013-09-11 04:55:00